Location: St. Louis
(38.6270°N, 90.1994°W)
Time: 20:08:14
(UTC-06:00)

Vanguard 1 - Pass Details

Date: 06 December 2021
Orbit: 652 x 3830 km, 34.2° (Epoch: 21 January)

Event Time Altitude Azimuth Distance (km) Brightness Sun altitude
Rises 19:09:24 0° 175° (S) 5,830 14.1 -28.6°
Reaches altitude 10° 19:15:29 10° 155° (SSE) 5,445 13.7 -29.8°
Enters shadow 19:21:22 15° 134° (SE) 5,497 13.5 -30.9°
